Year,Month,Day,Hour,Minute,Value (Times are PST for temperature in C)
2011,04,06,00,00,4.20
2011,04,06,00,01,4.20
2011,04,06,00,02,4.20
2011,04,06,00,03,4.20
2011,04,06,00,04,4.20
2011,04,06,00,05,4.20
2011,04,06,00,06,4.20
2011,04,06,00,07,4.20
2011,04,06,00,08,4.20
2011,04,06,00,09,4.20
2011,04,06,00,10,4.30
2011,04,06,00,11,4.30
2011,04,06,00,12,4.30
2011,04,06,00,13,4.30
2011,04,06,00,14,4.30
2011,04,06,00,15,4.30
2011,04,06,00,16,4.30
2011,04,06,00,17,4.30
2011,04,06,00,18,4.30
2011,04,06,00,19,4.30
2011,04,06,00,20,4.30
2011,04,06,00,21,4.30
2011,04,06,00,22,4.30
2011,04,06,00,23,4.30
2011,04,06,00,24,4.30
2011,04,06,00,25,4.30
2011,04,06,00,26,4.30
2011,04,06,00,27,4.30
2011,04,06,00,28,4.40
2011,04,06,00,29,4.40
2011,04,06,00,30,4.40
2011,04,06,00,31,4.40
2011,04,06,00,32,4.40
2011,04,06,00,33,4.40
2011,04,06,00,34,4.40
2011,04,06,00,35,4.40
2011,04,06,00,36,4.30
2011,04,06,00,37,4.30
2011,04,06,00,38,4.30
2011,04,06,00,39,4.30
2011,04,06,00,40,4.30
2011,04,06,00,41,4.30
2011,04,06,00,42,4.30
2011,04,06,00,43,4.30
2011,04,06,00,44,4.30
2011,04,06,00,45,4.30
2011,04,06,00,46,4.30
2011,04,06,00,47,4.30
2011,04,06,00,48,4.30
2011,04,06,00,49,4.30
2011,04,06,00,50,4.30
2011,04,06,00,51,4.30
2011,04,06,00,52,4.30
2011,04,06,00,53,4.30
2011,04,06,00,54,4.30
2011,04,06,00,55,4.30
2011,04,06,00,56,4.30
2011,04,06,00,57,4.30
2011,04,06,00,58,4.30
2011,04,06,00,59,4.30
2011,04,06,01,00,4.30
2011,04,06,01,01,4.30
2011,04,06,01,02,4.30
2011,04,06,01,03,4.30
2011,04,06,01,04,4.20
2011,04,06,01,05,4.20
2011,04,06,01,06,4.20
2011,04,06,01,07,4.20
2011,04,06,01,08,4.30
2011,04,06,01,09,4.20
2011,04,06,01,10,4.20
2011,04,06,01,11,4.20
2011,04,06,01,12,4.20
2011,04,06,01,13,4.20
2011,04,06,01,14,4.20
2011,04,06,01,15,4.20
2011,04,06,01,16,4.20
2011,04,06,01,17,4.20
2011,04,06,01,18,4.20
2011,04,06,01,19,4.20
2011,04,06,01,20,4.20
2011,04,06,01,21,4.20
2011,04,06,01,22,4.20
2011,04,06,01,23,4.20
2011,04,06,01,24,4.20
2011,04,06,01,25,4.20
2011,04,06,01,26,4.20
2011,04,06,01,27,4.20
2011,04,06,01,28,4.10
2011,04,06,01,29,4.10
2011,04,06,01,30,4.10
2011,04,06,01,31,4.10
2011,04,06,01,32,4.10
2011,04,06,01,33,4.10
2011,04,06,01,34,4.10
2011,04,06,01,35,4.10
2011,04,06,01,36,4.10
2011,04,06,01,37,4.10
2011,04,06,01,38,4.10
2011,04,06,01,39,4.10
2011,04,06,01,40,4.10
2011,04,06,01,41,4.10
2011,04,06,01,42,4.10
2011,04,06,01,43,4.00
2011,04,06,01,44,4.00
2011,04,06,01,45,4.00
2011,04,06,01,46,3.90
2011,04,06,01,47,3.90
2011,04,06,01,48,3.90
2011,04,06,01,49,3.90
2011,04,06,01,50,3.90
2011,04,06,01,51,3.90
2011,04,06,01,52,3.90
2011,04,06,01,53,3.90
2011,04,06,01,54,3.90
2011,04,06,01,55,3.90
2011,04,06,01,56,3.90
2011,04,06,01,57,3.90
2011,04,06,01,58,3.90
2011,04,06,01,59,3.90
2011,04,06,02,00,3.80
2011,04,06,02,01,3.80
2011,04,06,02,02,3.80
2011,04,06,02,03,3.80
2011,04,06,02,04,3.70
2011,04,06,02,05,3.70
2011,04,06,02,06,3.70
2011,04,06,02,07,3.70
2011,04,06,02,08,3.70
2011,04,06,02,09,3.60
2011,04,06,02,10,3.60
2011,04,06,02,11,3.60
2011,04,06,02,12,3.60
2011,04,06,02,13,3.60
2011,04,06,02,14,3.60
2011,04,06,02,15,3.60
2011,04,06,02,16,3.60
2011,04,06,02,17,3.60
2011,04,06,02,18,3.60
2011,04,06,02,19,3.70
2011,04,06,02,20,3.70
2011,04,06,02,21,3.70
2011,04,06,02,22,3.70
2011,04,06,02,23,3.70
2011,04,06,02,24,3.70
2011,04,06,02,25,3.60
2011,04,06,02,26,3.60
2011,04,06,02,27,3.60
2011,04,06,02,28,3.60
2011,04,06,02,29,3.60
2011,04,06,02,30,3.60
2011,04,06,02,31,3.60
2011,04,06,02,32,3.60
2011,04,06,02,33,3.70
2011,04,06,02,34,3.60
2011,04,06,02,35,3.70
2011,04,06,02,36,3.70
2011,04,06,02,37,3.70
2011,04,06,02,38,3.70
2011,04,06,02,39,3.70
2011,04,06,02,40,3.70
2011,04,06,02,41,3.70
2011,04,06,02,42,3.70
2011,04,06,02,43,3.70
2011,04,06,02,44,3.80
2011,04,06,02,45,3.90
2011,04,06,02,46,3.90
2011,04,06,02,47,3.90
2011,04,06,02,48,4.00
2011,04,06,02,49,4.00
2011,04,06,02,50,4.00
2011,04,06,02,51,4.10
2011,04,06,02,52,4.10
2011,04,06,02,53,4.10
2011,04,06,02,54,4.10
2011,04,06,02,55,4.10
2011,04,06,02,56,4.20
2011,04,06,02,57,4.20
2011,04,06,02,58,4.20
2011,04,06,02,59,4.20
2011,04,06,03,00,4.30
2011,04,06,03,01,4.30
2011,04,06,03,02,4.30
2011,04,06,03,03,4.40
2011,04,06,03,04,4.40
2011,04,06,03,05,4.40
2011,04,06,03,06,4.40
2011,04,06,03,07,4.40
2011,04,06,03,08,4.40
2011,04,06,03,09,4.40
2011,04,06,03,10,4.40
2011,04,06,03,11,4.40
2011,04,06,03,12,4.40
2011,04,06,03,13,4.30
2011,04,06,03,14,4.40
2011,04,06,03,15,4.40
2011,04,06,03,16,4.40
2011,04,06,03,17,4.40
2011,04,06,03,18,4.40
2011,04,06,03,19,4.30
2011,04,06,03,20,4.30
2011,04,06,03,21,4.30
2011,04,06,03,22,4.30
2011,04,06,03,23,4.30
2011,04,06,03,24,4.30
2011,04,06,03,25,4.40
2011,04,06,03,26,4.40
2011,04,06,03,27,4.40
2011,04,06,03,28,4.40
2011,04,06,03,29,4.40
2011,04,06,03,30,4.40
2011,04,06,03,31,4.40
2011,04,06,03,32,4.40
2011,04,06,03,33,4.40
2011,04,06,03,34,4.40
2011,04,06,03,35,4.50
2011,04,06,03,36,4.50
2011,04,06,03,37,4.50
2011,04,06,03,38,4.50
2011,04,06,03,39,4.40
2011,04,06,03,40,4.40
2011,04,06,03,41,4.40
2011,04,06,03,42,4.40
2011,04,06,03,43,4.40
2011,04,06,03,44,4.40
2011,04,06,03,45,4.40
2011,04,06,03,46,4.40
2011,04,06,03,47,4.50
2011,04,06,03,48,4.50
2011,04,06,03,49,4.50
2011,04,06,03,50,4.50
2011,04,06,03,51,4.50
2011,04,06,03,52,4.50
2011,04,06,03,53,4.50
2011,04,06,03,54,4.50
2011,04,06,03,55,4.50
2011,04,06,03,56,4.50
2011,04,06,03,57,4.40
2011,04,06,03,58,4.40
2011,04,06,03,59,4.30
2011,04,06,04,00,4.30
2011,04,06,04,01,4.30
2011,04,06,04,02,4.30
2011,04,06,04,03,4.20
2011,04,06,04,04,4.20
2011,04,06,04,05,4.20
2011,04,06,04,06,4.20
2011,04,06,04,07,4.20
2011,04,06,04,08,4.20
2011,04,06,04,09,4.20
2011,04,06,04,10,4.20
2011,04,06,04,11,4.20
2011,04,06,04,12,4.20
2011,04,06,04,13,4.30
2011,04,06,04,14,4.30
2011,04,06,04,15,4.30
2011,04,06,04,16,4.30
2011,04,06,04,17,4.20
2011,04,06,04,18,4.20
2011,04,06,04,19,4.20
2011,04,06,04,20,4.20
2011,04,06,04,21,4.30
2011,04,06,04,22,4.30
2011,04,06,04,23,4.30
2011,04,06,04,24,4.30
2011,04,06,04,25,4.30
2011,04,06,04,26,4.30
2011,04,06,04,27,4.30
2011,04,06,04,28,4.30
2011,04,06,04,29,4.30
2011,04,06,04,30,4.20
2011,04,06,04,31,4.20
2011,04,06,04,32,4.20
2011,04,06,04,33,4.20
2011,04,06,04,34,4.10
2011,04,06,04,35,4.10
2011,04,06,04,36,4.10
2011,04,06,04,37,4.10
2011,04,06,04,38,4.10
2011,04,06,04,39,4.00
2011,04,06,04,40,4.00
2011,04,06,04,41,3.90
2011,04,06,04,42,3.90
2011,04,06,04,43,3.90
2011,04,06,04,44,3.90
2011,04,06,04,45,3.80
2011,04,06,04,46,3.80
2011,04,06,04,47,3.80
2011,04,06,04,48,3.80
2011,04,06,04,49,3.80
2011,04,06,04,50,3.80
2011,04,06,04,51,3.70
2011,04,06,04,52,3.70
2011,04,06,04,53,3.70
2011,04,06,04,54,3.70
2011,04,06,04,55,3.70
2011,04,06,04,56,3.70
2011,04,06,04,57,3.70
2011,04,06,04,58,3.70
2011,04,06,04,59,3.70
2011,04,06,05,00,3.80
2011,04,06,05,01,3.80
2011,04,06,05,02,3.80
2011,04,06,05,03,3.80
2011,04,06,05,04,3.80
2011,04,06,05,05,3.80
2011,04,06,05,06,3.80
2011,04,06,05,07,3.80
2011,04,06,05,08,3.70
2011,04,06,05,09,3.70
2011,04,06,05,10,3.70
2011,04,06,05,11,3.60
2011,04,06,05,12,3.60
2011,04,06,05,13,3.60
2011,04,06,05,14,3.50
2011,04,06,05,15,3.60
2011,04,06,05,16,3.60
2011,04,06,05,17,3.60
2011,04,06,05,18,3.70
2011,04,06,05,19,3.70
2011,04,06,05,20,3.70
2011,04,06,05,21,3.70
2011,04,06,05,22,3.60
2011,04,06,05,23,3.60
2011,04,06,05,24,3.60
2011,04,06,05,25,3.50
2011,04,06,05,26,3.50
2011,04,06,05,27,3.50
2011,04,06,05,28,3.40
2011,04,06,05,29,3.40
2011,04,06,05,30,3.40
2011,04,06,05,31,3.40
2011,04,06,05,32,3.50
2011,04,06,05,33,3.60
2011,04,06,05,34,3.60
2011,04,06,05,35,3.70
2011,04,06,05,36,3.70
2011,04,06,05,37,3.80
2011,04,06,05,38,3.80
2011,04,06,05,39,3.80
2011,04,06,05,40,3.90
2011,04,06,05,41,3.90
2011,04,06,05,42,3.90
2011,04,06,05,43,3.90
2011,04,06,05,44,4.00
2011,04,06,05,45,4.00
2011,04,06,05,46,4.00
2011,04,06,05,47,4.10
2011,04,06,05,48,4.10
2011,04,06,05,49,4.10
2011,04,06,05,50,4.10
2011,04,06,05,51,4.00
2011,04,06,05,52,4.00
2011,04,06,05,53,3.90
2011,04,06,05,54,4.00
2011,04,06,05,55,4.10
2011,04,06,05,56,4.10
2011,04,06,05,57,4.10
2011,04,06,05,58,4.10
2011,04,06,05,59,4.10
2011,04,06,06,00,4.10
2011,04,06,06,01,4.10
2011,04,06,06,02,4.00
2011,04,06,06,03,4.00
2011,04,06,06,04,3.90
2011,04,06,06,05,3.80
2011,04,06,06,06,3.90
2011,04,06,06,07,3.90
2011,04,06,06,08,3.80
2011,04,06,06,09,3.80
2011,04,06,06,10,3.80
2011,04,06,06,11,3.80
2011,04,06,06,12,3.80
2011,04,06,06,13,3.90
2011,04,06,06,14,3.90
2011,04,06,06,15,3.90
2011,04,06,06,16,4.00
2011,04,06,06,17,4.00
2011,04,06,06,18,4.00
2011,04,06,06,19,4.00
2011,04,06,06,20,4.00
2011,04,06,06,21,4.00
2011,04,06,06,22,3.90
2011,04,06,06,23,3.90
2011,04,06,06,24,3.80
2011,04,06,06,25,3.80
2011,04,06,06,26,3.80
2011,04,06,06,27,3.70
2011,04,06,06,28,3.70
2011,04,06,06,29,3.60
2011,04,06,06,30,3.50
2011,04,06,06,31,3.50
2011,04,06,06,32,3.40
2011,04,06,06,33,3.30
2011,04,06,06,34,3.20
2011,04,06,06,35,3.20
2011,04,06,06,36,3.10
2011,04,06,06,37,3.00
2011,04,06,06,38,3.00
2011,04,06,06,39,2.90
2011,04,06,06,40,2.80
2011,04,06,06,41,2.80
2011,04,06,06,42,2.70
2011,04,06,06,43,2.70
2011,04,06,06,44,2.60
2011,04,06,06,45,2.60
2011,04,06,06,46,2.50
2011,04,06,06,47,2.50
2011,04,06,06,48,2.50
2011,04,06,06,49,2.40
2011,04,06,06,50,2.40
2011,04,06,06,51,2.40
2011,04,06,06,52,2.30
2011,04,06,06,53,2.30
2011,04,06,06,54,2.30
2011,04,06,06,55,2.20
2011,04,06,06,56,2.20
2011,04,06,06,57,2.20
2011,04,06,06,58,2.10
2011,04,06,06,59,2.10
2011,04,06,07,00,2.10
2011,04,06,07,01,2.10
2011,04,06,07,02,2.10
2011,04,06,07,03,2.10
2011,04,06,07,04,2.10
2011,04,06,07,05,2.00
2011,04,06,07,06,2.00
2011,04,06,07,07,2.00
2011,04,06,07,08,2.00
2011,04,06,07,09,2.00
2011,04,06,07,10,2.00
2011,04,06,07,11,2.00
2011,04,06,07,12,2.00
2011,04,06,07,13,2.00
2011,04,06,07,14,2.00
2011,04,06,07,15,2.00
2011,04,06,07,16,2.00
2011,04,06,07,17,2.00
2011,04,06,07,18,2.00
2011,04,06,07,19,2.10
2011,04,06,07,20,2.10
2011,04,06,07,21,2.10
2011,04,06,07,22,2.10
2011,04,06,07,23,2.10
2011,04,06,07,24,2.10
2011,04,06,07,25,2.10
2011,04,06,07,26,2.10
2011,04,06,07,27,2.10
2011,04,06,07,28,2.10
2011,04,06,07,29,2.20
2011,04,06,07,30,2.20
2011,04,06,07,31,2.20
2011,04,06,07,32,2.20
2011,04,06,07,33,2.20
2011,04,06,07,34,2.20
2011,04,06,07,35,2.20
2011,04,06,07,36,2.20
2011,04,06,07,37,2.10
2011,04,06,07,38,2.10
2011,04,06,07,39,2.10
2011,04,06,07,40,2.10
2011,04,06,07,41,2.10
2011,04,06,07,42,2.10
2011,04,06,07,43,2.10
2011,04,06,07,44,2.00
2011,04,06,07,45,2.00
2011,04,06,07,46,2.00
2011,04,06,07,47,2.00
2011,04,06,07,48,2.00
2011,04,06,07,49,2.00
2011,04,06,07,50,2.00
2011,04,06,07,51,2.00
2011,04,06,07,52,2.00
2011,04,06,07,53,2.00
2011,04,06,07,54,2.10
2011,04,06,07,55,2.10
2011,04,06,07,56,2.10
2011,04,06,07,57,2.10
2011,04,06,07,58,2.20
2011,04,06,07,59,2.20
2011,04,06,08,00,2.20
2011,04,06,08,01,2.20
2011,04,06,08,02,2.30
2011,04,06,08,03,2.30
2011,04,06,08,04,2.30
2011,04,06,08,05,2.30
2011,04,06,08,06,2.30
2011,04,06,08,07,2.40
2011,04,06,08,08,2.40
2011,04,06,08,09,2.40
2011,04,06,08,10,2.50
2011,04,06,08,11,2.50
2011,04,06,08,12,2.60
2011,04,06,08,13,2.60
2011,04,06,08,14,2.70
2011,04,06,08,15,2.80
2011,04,06,08,16,2.90
2011,04,06,08,17,3.00
2011,04,06,08,18,3.10
2011,04,06,08,19,3.20
2011,04,06,08,20,3.30
2011,04,06,08,21,3.40
2011,04,06,08,22,3.50
2011,04,06,08,23,3.60
2011,04,06,08,24,3.60
2011,04,06,08,25,3.70
2011,04,06,08,26,3.80
2011,04,06,08,27,3.90
2011,04,06,08,28,4.00
2011,04,06,08,29,4.10
2011,04,06,08,30,4.20
2011,04,06,08,31,4.30
2011,04,06,08,32,4.40
2011,04,06,08,33,4.60
2011,04,06,08,34,4.70
2011,04,06,08,35,4.80
2011,04,06,08,36,4.90
2011,04,06,08,37,5.00
2011,04,06,08,38,5.10
2011,04,06,08,39,5.20
2011,04,06,08,40,5.30
2011,04,06,08,41,5.40
2011,04,06,08,42,5.40
2011,04,06,08,43,5.50
2011,04,06,08,44,5.50
2011,04,06,08,45,5.60
2011,04,06,08,46,5.60
2011,04,06,08,47,5.60
2011,04,06,08,48,5.60
2011,04,06,08,49,5.70
2011,04,06,08,50,5.80
2011,04,06,08,51,5.90
2011,04,06,08,52,6.00
2011,04,06,08,53,6.10
2011,04,06,08,54,6.10
2011,04,06,08,55,6.10
2011,04,06,08,56,6.10
2011,04,06,08,57,6.10
2011,04,06,08,58,6.10
2011,04,06,08,59,6.10
2011,04,06,09,00,6.00
2011,04,06,09,01,6.00
2011,04,06,09,02,6.00
2011,04,06,09,03,5.90
2011,04,06,09,04,5.90
2011,04,06,09,05,5.80
2011,04,06,09,06,5.70
2011,04,06,09,07,5.70
2011,04,06,09,08,5.70
2011,04,06,09,09,5.70
2011,04,06,09,10,5.70
2011,04,06,09,11,5.70
2011,04,06,09,12,5.70
2011,04,06,09,13,5.70
2011,04,06,09,14,5.70
2011,04,06,09,15,5.70
2011,04,06,09,16,5.70
2011,04,06,09,17,5.70
2011,04,06,09,18,5.70
2011,04,06,09,19,5.70
2011,04,06,09,20,5.70
2011,04,06,09,21,5.70
2011,04,06,09,22,5.70
2011,04,06,09,23,5.70
2011,04,06,09,24,5.70
2011,04,06,09,25,5.70
2011,04,06,09,26,5.70
2011,04,06,09,27,5.70
2011,04,06,09,28,5.70
2011,04,06,09,29,5.70
2011,04,06,09,30,5.70
2011,04,06,09,31,5.70
2011,04,06,09,32,5.70
2011,04,06,09,33,5.60
2011,04,06,09,34,5.60
2011,04,06,09,35,5.60
2011,04,06,09,36,5.60
2011,04,06,09,37,5.60
2011,04,06,09,38,5.60
2011,04,06,09,39,5.50
2011,04,06,09,40,5.50
2011,04,06,09,41,5.50
2011,04,06,09,42,5.40
2011,04,06,09,43,5.40
2011,04,06,09,44,5.40
2011,04,06,09,45,5.40
2011,04,06,09,46,5.40
2011,04,06,09,47,5.40
2011,04,06,09,48,5.40
2011,04,06,09,49,5.40
2011,04,06,09,50,5.40
2011,04,06,09,51,5.50
2011,04,06,09,52,5.50
2011,04,06,09,53,5.50
2011,04,06,09,54,5.50
2011,04,06,09,55,5.50
2011,04,06,09,56,5.60
2011,04,06,09,57,5.60
2011,04,06,09,58,5.60
2011,04,06,09,59,5.60
2011,04,06,10,00,5.70
2011,04,06,10,01,5.70
2011,04,06,10,02,5.70
2011,04,06,10,03,5.70
2011,04,06,10,04,5.70
2011,04,06,10,05,5.80
2011,04,06,10,06,5.80
2011,04,06,10,07,5.90
2011,04,06,10,08,6.00
2011,04,06,10,09,6.10
2011,04,06,10,10,6.10
2011,04,06,10,11,6.20
2011,04,06,10,12,6.20
2011,04,06,10,13,6.20
2011,04,06,10,14,6.20
2011,04,06,10,15,6.20
2011,04,06,10,16,6.20
2011,04,06,10,17,6.20
2011,04,06,10,18,6.20
2011,04,06,10,19,6.30
2011,04,06,10,20,6.30
2011,04,06,10,21,6.30
2011,04,06,10,22,6.30
2011,04,06,10,23,6.30
2011,04,06,10,24,6.40
2011,04,06,10,25,6.40
2011,04,06,10,26,6.50
2011,04,06,10,27,6.50
2011,04,06,10,28,6.60
2011,04,06,10,29,6.60
2011,04,06,10,30,6.70
2011,04,06,10,31,6.70
2011,04,06,10,32,6.80
2011,04,06,10,33,6.80
2011,04,06,10,34,6.90
2011,04,06,10,35,6.90
2011,04,06,10,36,6.80
2011,04,06,10,37,6.80
2011,04,06,10,38,6.80
2011,04,06,10,39,6.70
2011,04,06,10,40,6.70
2011,04,06,10,41,6.70
2011,04,06,10,42,6.60
2011,04,06,10,43,6.60
2011,04,06,10,44,6.60
2011,04,06,10,45,6.60
2011,04,06,10,46,6.60
2011,04,06,10,47,6.60
2011,04,06,10,48,6.60
2011,04,06,10,49,6.60
2011,04,06,10,50,6.60
2011,04,06,10,51,6.60
2011,04,06,10,52,6.60
2011,04,06,10,53,6.60
2011,04,06,10,54,6.60
2011,04,06,10,55,6.60
2011,04,06,10,56,6.70
2011,04,06,10,57,6.70
2011,04,06,10,58,6.70
2011,04,06,10,59,6.70
2011,04,06,11,00,6.80
2011,04,06,11,01,6.80
2011,04,06,11,02,6.90
2011,04,06,11,03,7.00
2011,04,06,11,04,7.10
2011,04,06,11,05,7.10
2011,04,06,11,06,7.20
2011,04,06,11,07,7.20
2011,04,06,11,08,7.20
2011,04,06,11,09,7.20
2011,04,06,11,10,7.20
2011,04,06,11,11,7.20
2011,04,06,11,12,7.30
2011,04,06,11,13,7.30
2011,04,06,11,14,7.30
2011,04,06,11,15,7.40
2011,04,06,11,16,7.40
2011,04,06,11,17,7.40
2011,04,06,11,18,7.40
2011,04,06,11,19,7.40
2011,04,06,11,20,7.40
2011,04,06,11,21,7.40
2011,04,06,11,22,7.40
2011,04,06,11,23,7.40
2011,04,06,11,24,7.30
2011,04,06,11,25,7.30
2011,04,06,11,26,7.30
2011,04,06,11,27,7.30
2011,04,06,11,28,7.30
2011,04,06,11,29,7.20
2011,04,06,11,30,7.20
2011,04,06,11,31,7.20
2011,04,06,11,32,7.20
2011,04,06,11,33,7.20
2011,04,06,11,34,7.20
2011,04,06,11,35,7.30
2011,04,06,11,36,7.30
2011,04,06,11,37,7.30
2011,04,06,11,38,7.20
2011,04,06,11,39,7.20
2011,04,06,11,40,7.20
2011,04,06,11,41,7.20
2011,04,06,11,42,7.20
2011,04,06,11,43,7.20
2011,04,06,11,44,7.20
2011,04,06,11,45,7.20
2011,04,06,11,46,7.20
2011,04,06,11,47,7.20
2011,04,06,11,48,7.20
2011,04,06,11,49,7.20
2011,04,06,11,50,7.20
2011,04,06,11,51,7.20
2011,04,06,11,52,7.20
2011,04,06,11,53,7.20
2011,04,06,11,54,7.20
2011,04,06,11,55,7.20
2011,04,06,11,56,7.20
2011,04,06,11,57,7.20
2011,04,06,11,58,7.20
2011,04,06,11,59,7.20
2011,04,06,12,00,7.20
2011,04,06,12,01,7.20
2011,04,06,12,02,7.20
2011,04,06,12,03,7.20
2011,04,06,12,04,7.20
2011,04,06,12,05,7.30
2011,04,06,12,06,7.40
2011,04,06,12,07,7.40
2011,04,06,12,08,7.40
2011,04,06,12,09,7.50
2011,04,06,12,10,7.50
2011,04,06,12,11,7.60
2011,04,06,12,12,7.60
2011,04,06,12,13,7.60
2011,04,06,12,14,7.60
2011,04,06,12,15,7.60
2011,04,06,12,16,7.50
2011,04,06,12,17,7.40
2011,04,06,12,18,7.40
2011,04,06,12,19,7.40
2011,04,06,12,20,7.30
2011,04,06,12,21,7.30
2011,04,06,12,22,7.30
2011,04,06,12,23,7.30
2011,04,06,12,24,7.30
2011,04,06,12,25,7.20
2011,04,06,12,26,7.20
2011,04,06,12,27,7.20
2011,04,06,12,28,7.20
2011,04,06,12,29,7.20
2011,04,06,12,30,7.20
2011,04,06,12,31,7.30
2011,04,06,12,32,7.30
2011,04,06,12,33,7.40
2011,04,06,12,34,7.40
2011,04,06,12,35,7.40
2011,04,06,12,36,7.40
2011,04,06,12,37,7.40
2011,04,06,12,38,7.50
2011,04,06,12,39,7.60
2011,04,06,12,40,7.70
2011,04,06,12,41,7.70
2011,04,06,12,42,7.80
2011,04,06,12,43,7.80
2011,04,06,12,44,7.80
2011,04,06,12,45,7.80
2011,04,06,12,46,7.80
2011,04,06,12,47,7.80
2011,04,06,12,48,7.70
2011,04,06,12,49,7.70
2011,04,06,12,50,7.60
2011,04,06,12,51,7.60
2011,04,06,12,52,7.60
2011,04,06,12,53,7.50
2011,04,06,12,54,7.50
2011,04,06,12,55,7.40
2011,04,06,12,56,7.40
2011,04,06,12,57,7.30
2011,04,06,12,58,7.30
2011,04,06,12,59,7.30
2011,04,06,13,00,7.30
2011,04,06,13,01,7.30
2011,04,06,13,02,7.30
2011,04,06,13,03,7.30
2011,04,06,13,04,7.30
2011,04,06,13,05,7.40
2011,04,06,13,06,7.50
2011,04,06,13,07,7.50
2011,04,06,13,08,7.60
2011,04,06,13,09,7.70
2011,04,06,13,10,7.80
2011,04,06,13,11,7.90
2011,04,06,13,12,8.00
2011,04,06,13,13,8.10
2011,04,06,13,14,8.20
2011,04,06,13,15,8.20
2011,04,06,13,16,8.20
2011,04,06,13,17,8.30
2011,04,06,13,18,8.30
2011,04,06,13,19,8.30
2011,04,06,13,20,8.30
2011,04,06,13,21,8.30
2011,04,06,13,22,8.30
2011,04,06,13,23,8.40
2011,04,06,13,24,8.40
2011,04,06,13,25,8.40
2011,04,06,13,26,8.50
2011,04,06,13,27,8.50
2011,04,06,13,28,8.50
2011,04,06,13,29,8.60
2011,04,06,13,30,8.50
2011,04,06,13,31,8.50
2011,04,06,13,32,8.50
2011,04,06,13,33,8.40
2011,04,06,13,34,8.40
2011,04,06,13,35,8.30
2011,04,06,13,36,8.30
2011,04,06,13,37,8.20
2011,04,06,13,38,8.10
2011,04,06,13,39,8.10
2011,04,06,13,40,8.00
2011,04,06,13,41,8.00
2011,04,06,13,42,7.90
2011,04,06,13,43,7.80
2011,04,06,13,44,7.70
2011,04,06,13,45,7.60
2011,04,06,13,46,7.50
2011,04,06,13,47,7.40
2011,04,06,13,48,7.30
2011,04,06,13,49,7.20
2011,04,06,13,50,7.20
2011,04,06,13,51,7.20
2011,04,06,13,52,7.10
2011,04,06,13,53,7.00
2011,04,06,13,54,6.90
2011,04,06,13,55,6.90
2011,04,06,13,56,6.80
2011,04,06,13,57,6.70
2011,04,06,13,58,6.70
2011,04,06,13,59,6.70
2011,04,06,14,00,6.60
2011,04,06,14,01,6.60
2011,04,06,14,02,6.60
2011,04,06,14,03,6.60
2011,04,06,14,04,6.60
2011,04,06,14,05,6.60
2011,04,06,14,06,6.60
2011,04,06,14,07,6.60
2011,04,06,14,08,6.60
2011,04,06,14,09,6.70
2011,04,06,14,10,6.80
2011,04,06,14,11,6.90
2011,04,06,14,12,7.00
2011,04,06,14,13,7.10
2011,04,06,14,14,7.20
2011,04,06,14,15,7.30
2011,04,06,14,16,7.50
2011,04,06,14,17,7.60
2011,04,06,14,18,7.70
2011,04,06,14,19,7.90
2011,04,06,14,20,8.00
2011,04,06,14,21,8.10
2011,04,06,14,22,8.20
2011,04,06,14,23,8.20
2011,04,06,14,24,8.30
2011,04,06,14,25,8.30
2011,04,06,14,26,8.30
2011,04,06,14,27,8.40
2011,04,06,14,28,8.40
2011,04,06,14,29,8.40
2011,04,06,14,30,8.40
2011,04,06,14,31,8.50
2011,04,06,14,32,8.50
2011,04,06,14,33,8.60
2011,04,06,14,34,8.60
2011,04,06,14,35,8.60
2011,04,06,14,36,8.50
2011,04,06,14,37,8.50
2011,04,06,14,38,8.50
2011,04,06,14,39,8.50
2011,04,06,14,40,8.50
2011,04,06,14,41,8.50
2011,04,06,14,42,8.60
2011,04,06,14,43,8.60
2011,04,06,14,44,8.60
2011,04,06,14,45,8.70
2011,04,06,14,46,8.80
2011,04,06,14,47,8.80
2011,04,06,14,48,8.90
2011,04,06,14,49,9.00
2011,04,06,14,50,9.00
2011,04,06,14,51,9.10
2011,04,06,14,52,9.10
2011,04,06,14,53,9.10
2011,04,06,14,54,9.10
2011,04,06,14,55,9.20
2011,04,06,14,56,9.20
2011,04,06,14,57,9.20
2011,04,06,14,58,9.20
2011,04,06,14,59,9.10
2011,04,06,15,00,9.20
2011,04,06,15,01,9.20
2011,04,06,15,02,9.20
2011,04,06,15,03,9.10
2011,04,06,15,04,9.10
2011,04,06,15,05,9.10
2011,04,06,15,06,9.00
2011,04,06,15,07,9.00
2011,04,06,15,08,9.00
2011,04,06,15,09,9.00
2011,04,06,15,10,9.00
2011,04,06,15,11,9.10
2011,04,06,15,12,9.10
2011,04,06,15,13,9.00
2011,04,06,15,14,9.00
2011,04,06,15,15,9.00
2011,04,06,15,16,9.00
2011,04,06,15,17,8.90
2011,04,06,15,18,8.90
2011,04,06,15,19,8.90
2011,04,06,15,20,8.90
2011,04,06,15,21,8.90
2011,04,06,15,22,8.90
2011,04,06,15,23,8.90
2011,04,06,15,24,8.90
2011,04,06,15,25,8.90
2011,04,06,15,26,8.90
2011,04,06,15,27,8.90
2011,04,06,15,28,8.90
2011,04,06,15,29,8.90
2011,04,06,15,30,8.90
2011,04,06,15,31,9.00
2011,04,06,15,32,9.00
2011,04,06,15,33,9.00
2011,04,06,15,34,9.00
2011,04,06,15,35,8.90
2011,04,06,15,36,8.90
2011,04,06,15,37,8.90
2011,04,06,15,38,8.90
2011,04,06,15,39,8.90
2011,04,06,15,40,8.90
2011,04,06,15,41,9.00
2011,04,06,15,42,9.10
2011,04,06,15,43,9.10
2011,04,06,15,44,9.10
2011,04,06,15,45,9.10
2011,04,06,15,46,9.00
2011,04,06,15,47,8.90
2011,04,06,15,48,8.90
2011,04,06,15,49,8.90
2011,04,06,15,50,8.90
2011,04,06,15,51,8.80
2011,04,06,15,52,8.80
2011,04,06,15,53,8.80
2011,04,06,15,54,8.80
2011,04,06,15,55,8.80
2011,04,06,15,56,8.80
2011,04,06,15,57,8.80
2011,04,06,15,58,8.80
2011,04,06,15,59,8.80
2011,04,06,16,00,8.80
2011,04,06,16,01,8.80
2011,04,06,16,02,8.90
2011,04,06,16,03,8.90
2011,04,06,16,04,8.90
2011,04,06,16,05,8.80
2011,04,06,16,06,8.80
2011,04,06,16,07,8.80
2011,04,06,16,08,8.80
2011,04,06,16,09,8.80
2011,04,06,16,10,8.70
2011,04,06,16,11,8.70
2011,04,06,16,12,8.70
2011,04,06,16,13,8.70
2011,04,06,16,14,8.70
2011,04,06,16,15,8.70
2011,04,06,16,16,8.70
2011,04,06,16,17,8.70
2011,04,06,16,18,8.80
2011,04,06,16,19,8.80
2011,04,06,16,20,8.90
2011,04,06,16,21,9.00
2011,04,06,16,22,9.00
2011,04,06,16,23,9.10
2011,04,06,16,24,9.10
2011,04,06,16,25,9.10
2011,04,06,16,26,9.10
2011,04,06,16,27,9.20
2011,04,06,16,28,9.20
2011,04,06,16,29,9.30
2011,04,06,16,30,9.30
2011,04,06,16,31,9.40
2011,04,06,16,32,9.50
2011,04,06,16,33,9.60
2011,04,06,16,34,9.70
2011,04,06,16,35,9.70
2011,04,06,16,36,9.80
2011,04,06,16,37,9.80
2011,04,06,16,38,9.80
2011,04,06,16,39,9.80
2011,04,06,16,40,9.70
2011,04,06,16,41,9.60
2011,04,06,16,42,9.50
2011,04,06,16,43,9.40
2011,04,06,16,44,9.30
2011,04,06,16,45,9.30
2011,04,06,16,46,9.20
2011,04,06,16,47,9.20
2011,04,06,16,48,9.10
2011,04,06,16,49,9.10
2011,04,06,16,50,9.00
2011,04,06,16,51,9.00
2011,04,06,16,52,9.00
2011,04,06,16,53,8.90
2011,04,06,16,54,8.90
2011,04,06,16,55,8.90
2011,04,06,16,56,8.90
2011,04,06,16,57,8.80
2011,04,06,16,58,8.80
2011,04,06,16,59,8.80
2011,04,06,17,00,8.80
2011,04,06,17,01,8.80
2011,04,06,17,02,8.90
2011,04,06,17,03,8.90
2011,04,06,17,04,9.00
2011,04,06,17,05,9.00
2011,04,06,17,06,9.00
2011,04,06,17,07,9.10
2011,04,06,17,08,9.10
2011,04,06,17,09,9.20
2011,04,06,17,10,9.20
2011,04,06,17,11,9.30
2011,04,06,17,12,9.30
2011,04,06,17,13,9.40
2011,04,06,17,14,9.40
2011,04,06,17,15,9.40
2011,04,06,17,16,9.30
2011,04,06,17,17,9.20
2011,04,06,17,18,9.20
2011,04,06,17,19,9.10
2011,04,06,17,20,9.00
2011,04,06,17,21,9.00
2011,04,06,17,22,8.90
2011,04,06,17,23,8.90
2011,04,06,17,24,8.90
2011,04,06,17,25,8.90
2011,04,06,17,26,8.90
2011,04,06,17,27,8.90
2011,04,06,17,28,9.00
2011,04,06,17,29,9.00
2011,04,06,17,30,9.10
2011,04,06,17,31,9.20
2011,04,06,17,32,9.30
2011,04,06,17,33,9.30
2011,04,06,17,34,9.40
2011,04,06,17,35,9.40
2011,04,06,17,36,9.50
2011,04,06,17,37,9.50
2011,04,06,17,38,9.40
2011,04,06,17,39,9.40
2011,04,06,17,40,9.40
2011,04,06,17,41,9.40
2011,04,06,17,42,9.40
2011,04,06,17,43,9.40
2011,04,06,17,44,9.40
2011,04,06,17,45,9.40
2011,04,06,17,46,9.40
2011,04,06,17,47,9.40
2011,04,06,17,48,9.40
2011,04,06,17,49,9.40
2011,04,06,17,50,9.40
2011,04,06,17,51,9.30
2011,04,06,17,52,9.30
2011,04,06,17,53,9.20
2011,04,06,17,54,9.20
2011,04,06,17,55,9.10
2011,04,06,17,56,9.10
2011,04,06,17,57,9.10
2011,04,06,17,58,9.10
2011,04,06,17,59,9.00
2011,04,06,18,00,9.00
2011,04,06,18,01,9.10
2011,04,06,18,02,9.10
2011,04,06,18,03,9.10
2011,04,06,18,04,9.20
2011,04,06,18,05,9.10
2011,04,06,18,06,9.00